Regional Weather Roundup
Issued by NWS

Home | Current Version | Previous Version | Text Only | Print | Product List | Glossary Off
Versions: 1 2 3 4 5 6 7 8 9 10 11 12 13 14 15 16 17 18 19 20 21 22 23 24 25 26 27 28 29 30 31 32 33 34 35 36 37 38 39 40 41 42 43 44 45 46 47 48 49 50

000
ASUS43 KFSD 212210
RWRSD

WEATHER ROUNDUP FOR SOUTH DAKOTA
NATIONAL WEATHER SERVICE SIOUX FALLS SD
500 PM CDT MON MAY 21 2018

NOTE: "FAIR" INDICATES FEW OR NO CLOUDS BELOW 12,000 FEET WITH NO
SIGNIFICANT WEATHER AND/OR OBSTRUCTIONS TO VISIBILITY.


SDZ001>005-009-010-012>017-212300-
NORTHWEST AND NORTH CENTRAL SOUTH DAKOTA

CITY           SKY/WX    TMP DP  RH WIND       PRES   REMARKS
BUFFALO          N/A     76  49  38 SE14      29.83F
FAITH            N/A     72  50  45 SE12      29.92F
MOBRIDGE       SUNNY     73  52  47 SE7       29.91F
$$

SDZ012>016-024>037-041>051-057-063-072>074-212300-
SOUTHWEST AND SOUTH CENTRAL SOUTH DAKOTA

CITY           SKY/WX    TMP DP  RH WIND       PRES   REMARKS
RAPID CTY ARPT SUNNY     73  53  49 SE16G22   29.90F
PIERRE         SUNNY     74  46  36 SE8       29.91F
CUSTER         SUNNY     69  36  29 VRB7      29.98F
ELLSWORTH AFB  SUNNY     74  54  48 S7        29.90F
PHILIP         SUNNY     76  53  44 SE13      29.89F
PINE RIDGE     MOSUNNY   75  55  49 S10       29.92F
SPEARFISH      FAIR      72  54  53 E9G16     29.93F
WINNER         FAIR      76  51  41 SE8       29.94F
$$

SDZ004>011-016>023-039-040-212300-
NORTHEAST SOUTH DAKOTA

CITY           SKY/WX    TMP DP  RH WIND       PRES   REMARKS
ABERDEEN       SUNNY     71  55  56 SE5       29.95F
WATERTOWN      CLOUDY    61  56  83 VRB5      29.98F
BROOKINGS      CLOUDY    62  56  80 SE6       29.99F
SISSETON         N/A     65  56  72 S12       29.97F
$$

SDZ017-020-022-023-036>040-048>070-212300-
SOUTHEAST SOUTH DAKOTA

CITY           SKY/WX    TMP DP  RH WIND       PRES   REMARKS
SIOUX FALLS    CLOUDY    65  58  78 SW5       29.98F
HURON          MOSUNNY   69  57  65 SE6       29.95F
CHAMBERLAIN    SUNNY     76  53  44 S6        29.93F
MITCHELL       MOSUNNY   71  58  63 SE6       29.95F
YANKTON        SUNNY     70  57  63 E6        29.97F
$$

ABBREVIATIONS USED IN REMARKS
   TC - TEMPERATURE IN CELSIUS
  WCI - WIND CHILL INDEX
   HX - HEAT INDEX
  VSB - VISIBILITY





USA.gov is the U.S. government's official web portal to all federal, state and local government web resources and services.